GW4777 Weather Reports


time (UTC)temp
F
wind
direction
speed
knots
gust
knots
rain 1hr
in
rain 24hr
in
rain mn
in
humidity
%
barometer
mb
20260506104016 50 82 0.0 0.0 0.00 0.00 0.00 66 1014.7
20260506103512 50 75 0.0 0.0 0.00 0.00 0.00 67 1014.7
20260506103009 50 66 0.0 0.0 0.00 0.00 0.00 67 1014.7
20260506102508 49 61 0.0 0.9 0.00 0.00 0.00 68 1014.6
20260506102005 49 61 0.0 0.0 0.00 0.00 0.00 69 1014.8
20260506101501 49 90 0.0 0.0 0.00 0.00 0.00 70 1014.5
20260506100958 49 69 0.0 0.0 0.00 0.00 0.00 70 1014.8
20260506100457 49 70 0.9 1.7 0.00 0.00 0.00 70 1014.7
20260506095954 49 68 0.0 0.0 0.00 0.00 0.00 71 1014.6
20260506095453 49 73 0.0 0.0 0.00 0.00 0.00 71 1014.5
20260506094948 49 70 0.0 0.0 0.00 0.00 0.00 72 1014.6
20260506094447 49 83 0.0 0.0 0.00 0.00 0.00 73 1014.5
20260506093944 49 63 0.0 0.9 0.00 0.00 0.00 73 1014.6
20260506093442 49 63 0.0 0.9 0.00 0.00 0.00 74 1014.3
20260506092940 49 56 0.0 0.0 0.00 0.00 0.00 74 1014.0
20260506092438 49 85 0.0 0.9 0.00 0.00 0.00 75 1014.2
20260506091934 49 64 0.0 0.9 0.00 0.00 0.00 75 1014.3
20260506091432 49 88 0.0 0.0 0.00 0.00 0.00 75 1014.3
20260506090929 49 89 0.0 0.0 0.00 0.00 0.00 75 1014.1
20260506090427 49 77 0.0 0.0 0.00 0.00 0.00 76 1013.9
20260506085923 49 78 0.0 0.0 0.00 0.00 0.00 76 1014.0
20260506085420 49 48 0.0 0.0 0.00 0.00 0.00 75 1014.0
20260506084916 50 70 0.0 0.9 0.00 0.00 0.00 75 1014.2
20260506084413 50 134 0.0 0.9 0.00 0.00 0.00 74 1014.0
20260506083909 50 60 0.0 0.9 0.00 0.00 0.00 75 1013.8
20260506083407 50 73 0.0 0.0 0.00 0.00 0.00 76 1013.7
20260506082904 50 71 0.0 0.9 0.00 0.00 0.00 77 1013.7
20260506082401 50 96 0.0 0.0 0.00 0.00 0.00 76 1013.8
20260506081856 49 69 0.0 0.0 0.00 0.00 0.00 77 1013.7
20260506081355 50 65 0.0 0.0 0.00 0.00 0.00 77 1013.6
20260506080852 50 75 0.0 0.0 0.00 0.00 0.00 77 1013.5
20260506080349 50 92 0.0 0.9 0.00 0.00 0.00 76 1013.6
20260506073333 50 76 0.0 0.0 0.00 0.00 0.00 75 1013.1
20260506072829 50 104 0.0 0.0 0.00 0.00 0.00 75 1013.1
20260506072327 50 77 0.0 0.9 0.00 0.00 0.00 75 1012.9
20260506071825 50 74 0.0 0.0 0.00 0.00 0.00 75 1012.6
20260506071323 50 80 0.0 0.0 0.00 0.00 0.00 75 1012.8
20260506070820 50 79 0.0 0.0 0.00 0.00 0.00 75 1013.1
20260506070316 50 80 0.0 0.0 0.00 0.00 0.00 75 1013.4
20260506062253 50 71 0.0 0.0 0.00 0.00 0.00 74 1012.7
20260506061749 50 71 0.0 0.0 0.00 0.00 0.00 74 1012.5
20260506061246 50 104 0.0 0.0 0.00 0.00 0.00 74 1012.6
20260506060745 50 71 0.0 0.9 0.00 0.00 0.00 74 1012.5
20260506060242 50 83 0.0 0.0 0.00 0.00 0.00 74 1012.7
20260506051214 51 84 0.0 0.9 0.00 0.00 0.00 73 1011.9
20260506050712 51 94 0.0 0.9 0.00 0.00 0.00 73 1012.3
20260506050209 51 83 0.0 0.0 0.00 0.00 0.00 73 1012.5
20260506044700 51 78 0.0 0.0 0.00 0.00 0.00 73 1012.9
20260506044157 51 55 0.0 0.9 0.00 0.00 0.00 72 1012.5
20260506043654 52 79 0.0 0.9 0.00 0.00 0.00 72 1012.5
20260506043152 52 99 0.0 0.0 0.00 0.00 0.00 72 1012.1
20260506042651 52 73 0.0 0.0 0.00 0.00 0.00 72 1012.2
20260506042149 52 63 0.9 0.9 0.00 0.00 0.00 72 1012.5
20260506041652 51 98 0.0 0.0 0.00 0.00 0.00 72 1012.2
20260506041143 51 95 0.0 0.0 0.00 0.00 0.00 71 1012.3
20260506040641 52 67 0.0 0.0 0.00 0.00 0.00 71 1012.2
20260506040138 52 120 0.0 0.0 0.00 0.00 0.00 71 1012.2
20260506035635 52 85 0.0 0.0 0.00 0.00 0.00 71 1012.1
20260506035131 51 77 0.0 0.0 0.00 0.00 0.00 71 1012.0
20260506034628 52 66 0.0 0.9 0.00 0.00 0.00 71 1011.9
20260506034125 52 89 0.0 0.0 0.00 0.00 0.00 71 1011.8
20260506033623 52 80 0.0 0.0 0.00 0.00 0.00 70 1011.8
20260506033120 52 62 0.0 0.9 0.00 0.00 0.00 70 1011.6
20260506032617 52 87 0.0 0.9 0.00 0.00 0.00 70 1011.3
20260506032114 52 88 0.0 0.9 0.00 0.00 0.00 69 1011.3
20260506031611 52 79 0.0 0.0 0.00 0.00 0.00 69 1011.3
20260506031108 52 80 0.0 0.0 0.00 0.00 0.00 69 1011.1
20260506030606 52 61 0.0 0.9 0.00 0.00 0.00 68 1011.2
20260506030103 53 75 0.0 0.9 0.00 0.00 0.00 68 1011.3
20260506025600 53 50 0.0 0.9 0.00 0.00 0.00 68 1011.1
20260506025056 53 72 0.0 0.0 0.00 0.00 0.00 68 1011.2
20260506024553 53 71 0.0 0.0 0.00 0.00 0.00 68 1011.1
20260506024050 53 63 0.0 0.0 0.00 0.00 0.00 67 1010.9
20260506023545 53 78 0.9 0.9 0.00 0.00 0.00 67 1011.1
20260506023043 53 69 0.0 0.0 0.00 0.00 0.00 67 1011.0
20260506022541 53 77 0.0 0.0 0.00 0.00 0.00 67 1011.0
20260506022038 54 69 0.0 0.9 0.00 0.00 0.00 67 1010.9
20260506021535 54 62 0.0 0.0 0.00 0.00 0.00 67 1010.8
20260506021033 54 70 0.0 0.0 0.00 0.00 0.00 67 1010.7
20260506020530 54 84 0.0 0.0 0.00 0.00 0.00 66 1010.6
20260506020027 54 67 0.0 0.9 0.00 0.00 0.00 66 1010.5
20260506015525 54 56 0.0 0.9 0.00 0.00 0.00 66 1010.7
20260506015021 55 125 0.0 0.9 0.00 0.00 0.00 65 1010.4
20260506014519 55 77 0.0 0.0 0.00 0.00 0.00 65 1010.3
20260506014015 55 78 0.9 0.9 0.00 0.00 0.00 65 1010.3
20260506013513 55 62 0.0 0.0 0.00 0.00 0.00 66 1010.1
20260506013009 55 78 0.0 0.9 0.00 0.00 0.00 66 1010.1
20260506012505 55 69 0.0 0.9 0.00 0.00 0.00 66 1010.0
20260506012002 55 76 0.0 0.0 0.00 0.00 0.00 66 1009.8
20260506011500 55 75 0.0 0.9 0.00 0.00 0.00 65 1009.9
20260506010956 55 96 0.0 0.9 0.00 0.00 0.00 65 1009.7
20260506010455 56 72 0.0 0.0 0.00 0.00 0.00 65 1009.7
20260506005951 56 72 0.0 0.9 0.00 0.00 0.00 65 1009.5
20260506005449 56 70 0.0 0.0 0.00 0.00 0.00 65 1009.4
20260506004950 56 57 0.0 0.0 0.00 0.00 0.00 65 1009.2
20260506004448 56 97 0.0 0.9 0.00 0.00 0.00 65 1009.2
20260506003944 56 56 0.9 0.9 0.00 0.00 0.00 64 1009.2
20260506003441 57 62 0.0 0.9 0.00 0.00 0.00 64 1009.1
20260506002937 57 87 0.0 0.0 0.00 0.00 0.00 64 1009.0
20260506002433 57 66 0.0 0.0 0.00 0.00 0.00 64 1009.0
20260506001928 57 76 0.0 0.0 0.00 0.00 0.00 65 1009.0
20260506001426 57 54 0.0 0.9 0.00 0.00 0.00 64 1008.9
20260506000923 57 90 0.0 0.9 0.00 0.00 0.00 64 1008.9
20260506000423 57 64 0.0 0.9 0.00 0.00 0.00 64 1008.9
20260505235917 57 85 0.0 0.9 0.00 0.00 0.00 64 1008.9
20260505235415 57 65 0.9 0.9 0.00 0.00 0.00 64 1008.7
20260505234912 57 76 0.0 0.0 0.00 0.00 0.00 63 1008.9
20260505234409 57 63 0.0 0.9 0.00 0.00 0.00 63 1008.9
20260505233906 58 134 0.9 0.9 0.00 0.00 0.00 63 1009.0
20260505233404 58 70 0.0 0.0 0.00 0.00 0.00 62 1008.6
20260505232901 59 68 0.0 0.9 0.00 0.00 0.00 62 1008.7
20260505232359 59 57 0.9 0.9 0.00 0.00 0.00 61 1008.4
20260505231855 59 66 0.0 0.0 0.00 0.00 0.00 61 1008.5
20260505231353 59 78 0.9 0.9 0.00 0.00 0.00 61 1008.5
20260505230851 59 63 0.9 0.9 0.00 0.00 0.00 61 1008.6
20260505230348 59 70 0.9 1.7 0.00 0.00 0.00 61 1008.4
20260505225844 60 101 0.9 0.9 0.00 0.00 0.00 61 1008.2
20260505225342 60 65 0.9 0.9 0.00 0.00 0.00 61 1008.8
20260505224836 60 118 0.0 0.9 0.00 0.00 0.00 61 1008.5
20260505224335 60 78 0.0 0.9 0.00 0.00 0.00 60 1008.8
20260505223831 61 76 2.6 2.6 0.00 0.00 0.00 59 1008.8
20260505223329 61 109 0.9 1.7 0.00 0.00 0.00 60 1009.0
20260505222824 61 80 0.9 0.9 0.00 0.00 0.00 59 1008.6
20260505222320 62 112 1.7 2.6 0.00 0.00 0.00 58 1009.0
20260505221818 62 96 1.7 1.7 0.00 0.00 0.00 58 1008.9
20260505221314 63 81 1.7 2.6 0.00 0.00 0.00 58 1008.8
20260505220812 63 93 0.9 1.7 0.00 0.00 0.00 58 1008.5
20260505220309 64 107 0.9 0.9 0.00 0.00 0.00 57 1008.4
20260505215807 64 85 0.9 1.7 0.00 0.00 0.00 57 1008.5
20260505215305 64 68 0.0 0.9 0.00 0.00 0.00 57 1008.7
20260505214802 65 159 0.0 0.9 0.00 0.00 0.00 56 1008.5
20260505214259 66 85 0.9 0.9 0.00 0.00 0.00 55 1008.4
20260505213756 66 89 1.7 2.6 0.00 0.00 0.00 54 1008.5
20260505213254 66 70 0.9 0.9 0.00 0.00 0.00 54 1008.6
20260505212749 66 79 2.6 3.5 0.00 0.00 0.00 53 1008.6
20260505212247 66 18 3.5 5.2 0.00 0.00 0.00 53 1008.6
20260505211743 67 91 1.7 1.7 0.00 0.00 0.00 52 1008.7
20260505211241 67 134 2.6 2.6 0.00 0.00 0.00 52 1008.6
20260505210737 67 16 2.6 3.5 0.00 0.00 0.00 51 1008.7
20260505210234 68 40 3.5 3.5 0.00 0.00 0.00 51 1008.5
20260505205731 68 59 0.9 0.9 0.00 0.00 0.00 51 1008.4
20260505205230 69 81 0.9 1.7 0.00 0.00 0.00 49 1008.5
20260505204726 69 93 1.7 1.7 0.00 0.00 0.00 49 1008.3
20260505204224 69 110 0.0 0.0 0.00 0.00 0.00 50 1008.2
20260505203721 69 130 1.7 2.6 0.00 0.00 0.00 48 1008.2
20260505203218 69 73 0.9 1.7 0.00 0.00 0.00 48 1008.3
20260505202713 69 103 0.9 1.7 0.00 0.00 0.00 48 1008.2
20260505202210 69 102 0.9 1.7 0.00 0.00 0.00 49 1008.1
20260505201706 69 66 0.0 0.9 0.00 0.00 0.00 48 1008.0
20260505201204 70 105 1.7 2.6 0.00 0.00 0.00 47 1007.8
20260505200702 69 10 1.7 1.7 0.00 0.00 0.00 48 1007.9
20260505200159 69 340 2.6 3.5 0.00 0.00 0.00 48 1008.1
20260505195654 69 27 0.9 1.7 0.00 0.00 0.00 49 1007.9
20260505195152 69 119 0.9 0.9 0.00 0.00 0.00 48 1008.2
20260505194649 68 184 1.7 2.6 0.00 0.00 0.00 49 1008.2
20260505194145 68 70 0.9 1.7 0.00 0.00 0.00 48 1008.4
20260505193642 69 159 1.7 1.7 0.00 0.00 0.00 47 1008.2
20260505193139 69 103 1.7 2.6 0.00 0.00 0.00 47 1007.8
20260505192638 69 253 3.5 5.2 0.00 0.00 0.00 47 1008.0
20260505192134 69 74 1.7 2.6 0.00 0.00 0.00 49 1008.0
20260505191633 68 112 1.7 2.6 0.00 0.00 0.00 49 1008.1
20260505191131 69 75 1.7 2.6 0.00 0.00 0.00 48 1008.0
20260505190626 69 6 4.3 6.1 0.00 0.00 0.00 48 1007.9
20260505190121 70 74 1.7 1.7 0.00 0.00 0.00 46 1007.9
20260505185618 71 185 3.5 3.5 0.00 0.00 0.00 47 1007.9
20260505185114 71 89 0.9 0.9 0.00 0.00 0.00 47 1008.1
20260505184611 71 71 0.9 0.9 0.00 0.00 0.00 46 1008.3
20260505184108 71 115 0.0 0.0 0.00 0.00 0.00 47 1008.0
20260505183605 70 120 3.5 6.1 0.00 0.00 0.00 47 1007.7
20260505183103 69 52 0.0 0.9 0.00 0.00 0.00 50 1007.7
20260505182558 69 95 1.7 1.7 0.00 0.00 0.00 51 1007.9
20260505182055 69 134 2.6 3.5 0.00 0.00 0.00 50 1007.7
20260505181552 68 66 1.7 1.7 0.00 0.00 0.00 50 1007.7
20260505181049 69 154 3.5 6.1 0.00 0.00 0.00 51 1007.9
20260505180545 69 68 1.7 2.6 0.00 0.00 0.00 50 1008.0
20260505180043 69 65 1.7 2.6 0.00 0.00 0.00 49 1008.2
20260505175543 69 81 1.7 2.6 0.00 0.00 0.00 50 1008.2
20260505175041 69 72 0.9 0.9 0.00 0.00 0.00 51 1008.3
20260505174537 69 109 1.7 3.5 0.00 0.00 0.00 51 1007.8
20260505174033 69 95 0.9 1.7 0.00 0.00 0.00 51 1007.9
20260505173530 69 124 1.7 2.6 0.00 0.00 0.00 51 1008.0
20260505173027 70 15 1.7 2.6 0.00 0.00 0.00 50 1008.0
20260505172525 69 116 0.0 0.9 0.00 0.00 0.00 52 1007.7
20260505172021 69 112 0.9 0.9 0.00 0.00 0.00 53 1007.9
20260505171516 69 323 1.7 2.6 0.00 0.00 0.00 53 1007.6
20260505171014 70 70 0.9 0.9 0.00 0.00 0.00 53 1007.0
20260505170510 70 64 2.6 2.6 0.00 0.00 0.00 53 1007.2
20260505170006 69 347 4.3 6.1 0.00 0.00 0.00 53 1007.3
20260505165502 69 104 0.9 1.7 0.00 0.00 0.00 53 1007.3
20260505164957 69 87 0.0 0.9 0.00 0.00 0.00 55 1007.2
20260505164454 69 314 1.7 5.2 0.00 0.00 0.00 55 1006.9
20260505163952 69 120 1.7 3.5 0.00 0.00 0.00 55 1006.7
20260505163450 69 82 1.7 5.2 0.00 0.00 0.00 56 1006.6
20260505162949 68 253 0.9 1.7 0.00 0.00 0.00 58 1006.7
20260505162445 68 126 0.0 0.9 0.00 0.00 0.00 58 1006.2
20260505161942 68 83 2.6 5.2 0.00 0.00 0.00 58 1006.3
20260505161438 69 94 1.7 1.7 0.00 0.00 0.00 57 1006.2
20260505160936 69 276 0.9 1.7 0.00 0.00 0.00 58 1005.8
20260505160434 69 104 1.7 2.6 0.00 0.00 0.00 58 1005.8
20260505152910 72 154 1.7 1.7 0.00 0.00 0.00 58 1005.0
20260505152408 73 327 4.3 5.2 0.00 0.00 0.00 58 1005.0
20260505151907 73 120 2.6 3.5 0.00 0.00 0.00 59 1005.2
20260505151404 73 68 3.5 7.0 0.00 0.00 0.00 57 1004.8
20260505150901 72 353 2.6 3.5 0.00 0.00 0.00 58 1004.5
20260505150359 71 87 0.9 0.9 0.00 0.00 0.00 58 1004.8
20260505140328 76 128 1.7 2.6 0.00 0.00 0.00 29 1003.5
20260505130252 70 157 0.9 0.9 0.00 0.00 0.00 58 1002.0
20260505124742 69 127 0.9 1.7 0.00 0.00 0.00 61 1001.9
20260505124239 69 195 0.9 0.9 0.00 0.00 0.00 62 1001.7
20260505123734 69 153 0.0 0.0 0.00 0.00 0.00 62 1001.6
20260505123231 69 134 0.0 0.0 0.00 0.00 0.00 62 1001.5
20260505122728 69 133 0.9 0.9 0.00 0.00 0.00 63 1001.3
20260505122225 68 141 0.0 0.9 0.00 0.00 0.00 63 1001.4
20260505121722 68 171 0.9 0.9 0.00 0.00 0.00 63 1001.3
20260505121218 68 137 0.0 0.9 0.00 0.00 0.00 63 1001.5
20260505120715 69 128 0.9 1.7 0.00 0.00 0.00 63 1001.3
20260505120211 69 153 0.0 0.9 0.00 0.00 0.00 62 1001.3
20260505115704 69 85 0.9 0.9 0.00 0.00 0.00 62 1001.4
20260505115202 69 210 1.7 1.7 0.00 0.00 0.00 61 1001.4
20260505114659 70 145 0.9 1.7 0.00 0.00 0.00 61 1001.1
20260505114155 70 141 0.9 0.9 0.00 0.00 0.00 60 1000.8
20260505113652 70 140 0.9 0.9 0.00 0.00 0.00 60 1000.8
20260505113149 70 204 1.7 2.6 0.00 0.00 0.00 60 1000.6
20260505112645 70 282 0.9 1.7 0.00 0.00 0.00 60 1000.5
20260505112144 70 168 0.9 0.9 0.00 0.00 0.00 60 1000.5
20260505111643 70 138 0.9 0.9 0.00 0.00 0.00 60 1000.6
20260505111139 70 133 0.9 0.9 0.00 0.00 0.00 60 1000.5
20260505110635 70 107 0.9 0.9 0.00 0.00 0.00 60 1000.5
20260505110132 70 123 0.9 0.9 0.00 0.00 0.00 61 1000.6